Date String (YYYY-MM-DD hh:mm:ss) UTC,Instrument flags,Ambient pressure (hPa),Sample flow (lpm),Bypass flow (lpm),Sample temperature (°C),Ambient temperature (°C),ASC tube jacket temperature (°C),LED temperature (°C),Box temperature (°C),Sample RH (%),Span deviation,Mass concentration (μg/m³),Mass concentration (μg/m³),Mass concentration (μg/m³)
DateTimeUTC,F1_M11,P_M11,Q1_M11,Q2_M11,T1_M11,T2_M11,T3_M11,T4_M11,T5_M11,U1_M11,ZSPAN_M11,X0_M11,X2_M11,X1_M11
2022-05-07 22:00:00,,0810.2,5.00,0.00,29.2,25.4,00.0,38.1,30.6,09.2,0000.0,0005.37,0001.90,0001.12
2022-05-07 22:01:00,,0810.0,5.00,0.00,29.2,25.8,00.0,38.1,30.7,09.5,0000.0,0005.66,0001.87,0001.11
2022-05-07 22:02:00,,0810.0,5.00,0.00,29.1,26.3,00.0,38.1,30.8,09.2,0000.0,0005.40,0001.77,0001.11
2022-05-07 22:03:00,,0809.8,5.01,0.00,29.1,26.8,00.0,38.1,30.9,09.2,0000.0,0005.46,0001.77,0001.09
2022-05-07 22:04:00,,0809.9,4.99,0.00,29.2,27.2,00.0,38.1,31.0,08.7,0000.0,0005.48,0001.76,0001.07
2022-05-07 22:05:00,,0809.9,5.00,0.00,29.2,27.5,00.0,38.1,31.1,09.0,0000.0,0005.55,0001.75,0001.06
2022-05-07 22:06:00,,0810.0,5.00,0.00,29.3,27.9,00.0,38.1,31.2,09.3,0000.0,0005.50,0001.72,0001.06
2022-05-07 22:07:00,,0810.0,5.01,0.00,29.3,28.1,00.0,38.1,31.2,08.7,0000.0,0005.43,0001.73,0001.06
2022-05-07 22:08:00,,0809.9,5.01,0.00,29.4,28.4,00.0,38.1,31.3,08.6,0000.0,0005.41,0001.75,0001.07
2022-05-07 22:09:00,,0809.8,4.98,0.00,29.4,28.5,00.0,38.1,31.4,08.9,0000.0,0005.49,0001.79,0001.08
2022-05-07 22:10:00,,0809.8,5.00,0.00,29.5,27.8,00.0,38.2,31.2,09.2,0000.0,0004.21,0001.74,0001.07
2022-05-07 22:11:00,,0809.7,5.02,0.00,29.3,25.8,00.0,38.2,30.8,09.2,0000.0,0004.02,0001.81,0001.08
2022-05-07 22:12:00,,0809.7,5.00,0.00,29.2,25.5,00.0,38.2,30.7,09.0,0000.0,0004.32,0001.85,0001.09
2022-05-07 22:13:00,,0809.8,4.99,0.00,29.2,26.0,00.0,38.1,30.8,10.1,0000.0,0004.49,0001.91,0001.09
2022-05-07 22:14:00,,0809.9,5.02,0.00,29.2,26.4,00.0,38.1,30.9,10.1,0000.0,0004.52,0001.93,0001.10
2022-05-07 22:15:00,,0809.9,5.00,0.00,29.2,26.9,00.0,38.1,30.9,09.9,0000.0,0004.65,0001.95,0001.11
2022-05-07 22:16:00,,0809.9,4.99,0.00,29.2,27.3,00.0,38.1,31.0,09.0,0000.0,0004.73,0001.97,0001.12
2022-05-07 22:17:00,,0809.9,5.02,0.00,29.3,27.7,00.0,38.1,31.1,08.7,0000.0,0004.86,0001.99,0001.12
2022-05-07 22:18:00,,0809.9,5.00,0.00,29.3,28.0,00.0,38.1,31.2,09.3,0000.0,0006.22,0001.99,0001.12
2022-05-07 22:19:00,,0809.8,5.00,0.00,29.4,28.2,00.0,38.1,31.3,08.9,0000.0,0006.80,0001.96,0001.10
2022-05-07 22:20:00,,0809.8,5.00,0.00,29.4,28.4,00.0,38.1,31.4,09.2,0000.0,0007.69,0002.00,0001.11
2022-05-07 22:21:00,,0809.9,5.00,0.00,29.5,28.0,00.0,38.2,31.3,08.7,0000.0,0008.13,0002.05,0001.11
2022-05-07 22:22:00,,0809.9,5.01,0.00,29.4,26.0,00.0,38.2,30.8,10.0,0000.0,0008.11,0002.02,0001.10
2022-05-07 22:23:00,,0809.9,5.00,0.00,29.2,25.3,00.0,38.2,30.6,09.5,0000.0,0007.69,0002.00,0001.10
2022-05-07 22:24:00,,0809.9,5.00,0.00,29.2,25.8,00.0,38.1,30.7,09.2,0000.0,0007.66,0002.01,0001.11
2022-05-07 22:25:00,,0809.8,5.00,0.00,29.1,26.2,00.0,38.1,30.8,09.0,0000.0,0007.64,0001.99,0001.10
2022-05-07 22:26:00,,0809.9,5.01,0.00,29.2,26.7,00.0,38.1,30.9,09.8,0000.0,0007.48,0001.93,0001.10
2022-05-07 22:27:00,,0809.9,5.00,0.00,29.2,27.2,00.0,38.1,31.0,09.0,0000.0,0007.42,0001.94,0001.12
2022-05-07 22:28:00,,0809.8,5.00,0.00,29.2,27.6,00.0,38.1,31.1,09.0,0000.0,0007.38,0002.00,0001.12
2022-05-07 22:29:00,,0809.8,5.01,0.00,29.3,27.9,00.0,38.1,31.2,09.0,0000.0,0006.23,0001.99,0001.13
2022-05-07 22:30:00,,0809.9,5.00,0.00,29.3,28.2,00.0,38.1,31.3,09.0,0000.0,0005.59,0002.02,0001.13
2022-05-07 22:31:00,,0809.8,4.99,0.00,29.4,28.4,00.0,38.1,31.3,08.5,0000.0,0004.58,0001.99,0001.12
2022-05-07 22:32:00,,0809.7,5.01,0.00,29.5,28.2,00.0,38.2,31.3,08.8,0000.0,0003.97,0002.00,0001.12
2022-05-07 22:33:00,,0809.7,4.99,0.00,29.4,26.4,00.0,38.2,30.8,07.9,0000.0,0004.93,0001.99,0001.12
2022-05-07 22:34:00,,0809.7,5.00,0.00,29.2,25.3,00.0,38.2,30.6,08.4,0000.0,0005.79,0002.03,0001.12
2022-05-07 22:35:00,,0809.7,5.00,0.00,29.2,25.7,00.0,38.1,30.7,09.1,0000.0,0005.79,0002.01,0001.11
2022-05-07 22:36:00,,0809.7,5.01,0.00,29.1,26.2,00.0,38.1,30.8,08.6,0000.0,0005.96,0002.05,0001.11
2022-05-07 22:37:00,,0809.7,5.00,0.00,29.1,26.7,00.0,38.1,30.9,09.8,0000.0,0006.07,0002.08,0001.10
2022-05-07 22:38:00,,0809.7,5.00,0.00,29.2,27.1,00.0,38.1,30.9,08.7,0000.0,0006.08,0002.05,0001.09
2022-05-07 22:39:00,,0809.8,5.00,0.00,29.2,27.5,00.0,38.1,31.1,08.9,0000.0,0007.13,0002.04,0001.08
2022-05-07 22:40:00,,0809.9,5.01,0.00,29.3,27.9,00.0,38.1,31.2,08.9,0000.0,0007.47,0002.11,0001.08
2022-05-07 22:41:00,,0809.8,4.99,0.00,29.3,28.1,00.0,38.1,31.3,09.4,0000.0,0007.53,0002.14,0001.10
2022-05-07 22:42:00,,0809.8,5.00,0.00,29.4,28.4,00.0,38.1,31.3,09.3,0000.0,0007.53,0002.17,0001.11
2022-05-07 22:43:00,,0809.8,5.00,0.00,29.4,28.4,00.0,38.2,31.4,09.4,0000.0,0007.45,0002.13,0001.12
2022-05-07 22:44:00,,0809.8,5.01,0.00,29.4,26.9,00.0,38.2,31.0,08.7,0000.0,0007.32,0002.24,0001.13
2022-05-07 22:45:00,,0809.8,5.00,0.00,29.3,25.4,00.0,38.1,30.7,08.6,0000.0,0006.90,0002.31,0001.15
2022-05-07 22:46:00,,0809.8,5.01,0.00,29.2,25.7,00.0,38.1,30.7,08.4,0000.0,0006.89,0002.34,0001.15
2022-05-07 22:47:00,,0809.7,4.99,0.00,29.2,26.1,00.0,38.1,30.8,08.4,0000.0,0006.76,0002.32,0001.17
2022-05-07 22:48:00,,0809.7,5.01,0.00,29.2,26.6,00.0,38.1,30.9,08.5,0000.0,0007.38,0002.38,0001.16
2022-05-07 22:49:00,,0809.7,5.00,0.00,29.2,27.0,00.0,38.1,31.0,08.5,0000.0,0008.35,0002.47,0001.18
2022-05-07 22:50:00,,0809.7,5.00,0.00,29.2,27.4,00.0,38.1,31.0,09.0,0000.0,0008.33,0002.48,0001.20
2022-05-07 22:51:00,,0809.7,5.00,0.00,29.3,27.8,00.0,38.1,31.1,08.8,0000.0,0007.99,0002.41,0001.19
2022-05-07 22:52:00,,0809.7,5.01,0.00,29.3,28.1,00.0,38.1,31.2,08.9,0000.0,0007.97,0002.37,0001.20
2022-05-07 22:53:00,,0809.7,5.00,0.00,29.4,28.3,00.0,38.1,31.3,08.7,0000.0,0008.06,0002.39,0001.21
2022-05-07 22:54:00,,0809.7,4.99,0.00,29.4,28.5,00.0,38.2,31.4,09.1,0000.0,0009.06,0002.40,0001.22
2022-05-07 22:55:00,,0809.7,5.00,0.00,29.5,28.3,00.0,38.2,31.4,08.9,0000.0,0009.00,0002.39,0001.22
2022-05-07 22:56:00,,0809.7,5.01,0.00,29.4,26.4,00.0,38.2,30.9,08.9,0000.0,0009.53,0002.32,0001.21
2022-05-07 22:57:00,,0809.7,5.00,0.00,29.3,25.4,00.0,38.2,30.7,08.9,0000.0,0009.47,0002.26,0001.21
2022-05-07 22:58:00,,0809.8,5.00,0.00,29.2,25.9,00.0,38.1,30.8,08.9,0000.0,0009.57,0002.29,0001.20
2022-05-07 22:59:00,,0809.7,5.01,0.00,29.2,26.3,00.0,38.1,30.9,08.2,0000.0,0009.27,0002.25,0001.21
